Location: Chuathbaluk
(61.5726°N, 159.2454°W)
Time: 08:23:06
(UTC+00:00)

FO-99 - Visible Passes

Search period start: 17 January 2021 00:00
Search period end: 27 January 2021 00:00
Orbit: 474 x 506 km, 97.2° (Epoch: 16 January)

Date Brightness Start Highest point End Pass type
(mag) Time Alt. Az. Time Alt. Az. Time Alt. Az.
19 Jan ? 05:34:00 11° N 05:34:00 11° N 05:34:07 10° N visible
19 Jan ? 18:19:18 10° ENE 18:20:47 12° E 18:22:17 10° ESE visible
20 Jan ? 05:11:07 11° N 05:11:07 11° N 05:11:21 10° N visible
21 Jan ? 04:48:13 11° N 04:48:13 11° N 04:48:29 10° N visible
21 Jan ? 06:22:41 10° NNW 06:22:41 10° NNW 06:22:45 10° NNW visible
22 Jan ? 04:25:19 10° NNE 04:25:19 10° NNE 04:25:26 10° NNE visible
22 Jan ? 05:59:47 12° N 05:59:47 12° N 06:00:07 10° N visible
23 Jan ? 05:36:53 13° N 05:36:53 13° N 05:37:25 10° N visible
23 Jan ? 18:22:25 10° NE 18:24:06 13° E 18:25:48 10° ESE visible
24 Jan ? 05:13:58 14° N 05:13:58 14° N 05:14:38 10° N visible
24 Jan ? 06:48:26 11° NNW 06:48:26 11° NNW 06:48:34 10° NNW visible
25 Jan ? 04:51:03 13° NNE 04:51:03 13° NNE 04:51:46 10° N visible
25 Jan ? 06:25:31 13° NNW 06:25:31 13° NNW 06:26:00 10° NNW visible
26 Jan ? 04:28:07 12° NNE 04:28:07 12° NNE 04:28:45 10° NNE visible
26 Jan ? 06:02:36 16° N 06:02:36 16° N 06:03:21 10° N visible
